STARLINK-31958, 59924

Orbit data source: Space-Track

STARLINK-31958, 59924 is a payload satellite owned by SpaceX/Seattle (US) in LEO that was launched on Sat, 01 Jun 2024 UTC via an FALCON 9 launch vehicle from the Air Force Eastern Test Range (AFETR). Payload-class satellites include a variety of spacecraft equipped with specific instruments for various scientific and technological missions. These include communications satellites like Starlink; space stations such as the ISS; scientific satellites like the Hubble; Earth observation satellites from companies like Planet Labs, Umbra, and HawkEye 360; GPS; miniature CubeSats for education and research; and military/defense satellites.

Loading next visibility...
Identifier
59924, 2024-106C
Orbit
LEO
Last TLE update
22 hours ago
Origin
Manufacturer
SpaceX/Seattle
Mission
Operational spacecraft
Bus & Motor
STARLINK V2M, Unknown motor
Mass
730 kg wet, ~700 kg dry
Launch date (UTC)
2024-06-01 (11 months ago)
Launch vehicle
FALCON 9
Launch site
Air Force Eastern Test Range (AFETR)
Object type
Payload
Rocket body
Debris
Shape & HBR
Unknown
Radar Cross Section
Large (>1 m²)

Expand to show TLE details & history

TLE from 22 hours ago
0 STARLINK-31958
1 59924U 24106C   25132.65545372  .00004594  00000-0  11732-3 0  9991
2 59924  43.0035 226.5466 0001485 269.7097  90.3590 15.40663408 54557
Epoch: 2025-05-12T15:43Z
Definitive object data (Epoch: 2025-05-12T15:43:51.201Z)
Latitude
0.00003°
Longitude
119.91787°
Altitude
443.931 km
Speed
7.648 km/s
True Right ascension
15h 06m 11s
True Declination
0° 00' 00"
Sunlit
Object was in full shadow at TLE epoch
Visualization TLE readout
Latitude
16.51582°
Longitude
-83.90566°
Altitude
443.755 km
Speed
7.649 km/s
Apparent Right ascension
04h 44m 41s
Apparent Declination
-25° 26' 54"
Sunlit
Object is in daylight
Visualization observer readout
Local Sidereal Time
22:36:59
Azimuth
108.964° ESE
Elevation
-17.396°
Doppler factor
1
Orbital elements
Apogee altitude
447.119 km
Perigee altitude
445.092 km
Semi-major axis
6,824.243 km
Eccentricity
0.0001485
Inclination
43.0035°
RAAN
226.5466°
Arg. of periapsis
269.7097°
True anomaly
90.37602°
Mean anomaly
90.359°
Eccentric anomaly
90.36751°
Mean motion
3.85001 °/min
BSTAR
0.00011732
Orbital period
93.51 mins
Loading maneuver chart data...
Loading SW <> Apogee altitude chart data...
Loading historical data...
Loading historical data...
Loading historical data...
Loading historical data...
Loading historical data...
Loading historical data...
Loading historical data...

STARLINK-31958 Visibility forecast

Observer location: undefined°, undefined°

Span
Click to sort rows by Start time (UTC) header in descending order
Start Az.
Max El. time (UTC)
Max El. Az.
Max El.
End time (UTC)
End Az.
5 mins2025-05-13 15:34:06.994Z266.65° W2025-05-13 15:37:06.994Z206.343° SW21.305°2025-05-13 15:39:06.994Z165.655° S
5 mins2025-05-14 10:00:06.994Z245.925° WSW2025-05-14 10:02:06.994Z183.48° SSW44.7°2025-05-14 10:05:06.994Z73.071° E
5 mins2025-05-14 11:38:06.994Z287.232° WNW2025-05-14 11:40:06.994Z338.886° N36.637°2025-05-14 11:43:06.994Z70.818° E
5 mins2025-05-14 13:17:06.994Z295.345° NW2025-05-14 13:19:06.994Z70.451° E41.745°2025-05-14 13:22:06.994Z101.005° ESE
|